Regional Weather Roundup
Issued by NWS

Home | Current Version | Previous Version | Text Only | Print | Product List | Glossary On
Versions: 1 2 3 4 5 6 7 8 9 10 11 12 13 14 15 16 17 18 19 20 21 22 23 24 25 26 27 28 29 30 31 32 33 34 35 36 37 38 39 40 41 42 43 44 45 46 47 48 49 50
000
ASPQ40 PGUM 282112
RWRPQ
WEATHER ROUNDUP FOR THE MARIANAS AND MICRONESIA
NATIONAL WEATHER SERVICE TIYAN GU
700 AM CHST WED MAR 29 2017

GUZ001>004-282200-
MARIANA ISLANDS-

CITY           SKY/WX    TMP DP  RH WIND       PRES   REMARKS
GUAM AIRPORT   MOCLDY    79  77  94 NE10      29.96R
ANDERSEN AFB   MOCLDY    77  75  94 E17       29.97R
ROTA AIRPORT   LGT RAIN  77  73  88 NE14G23   29.96R
TINIAN AP      LGT RAIN  77  75  94 NE13      29.95R
SAIPAN AP      LGT RAIN  77  75  94 NE18G28   29.97R

$$

PMZ161-282200-
REPUBLIC OF PALAU-

CITY           SKY/WX    TMP DP  RH WIND       PRES   REMARKS
KOROR AP       NOT AVBL
KOROR WSO      CLOUDY    77  75  94 NE6       29.86S

$$

PMZ171>174-282200-
FEDERATED STATES OF MICRONESIA-

CITY           SKY/WX    TMP DP  RH WIND       PRES   REMARKS
YAP AIRPORT    MOCLDY    81  73  78 E8        29.85R
CHUUK AP       LGT RAIN  77  75  94 E8        29.87R
POHNPEI AP     NOT AVBL
POHNPEI WSO    LGT RAIN  79  77  94 N7        29.87R
KOSRAE AP      NOT AVBL

$$

PMZ181-282200-
REPUBLIC OF THE MARSHALL ISLANDS-

CITY           SKY/WX    TMP DP  RH WIND       PRES   REMARKS
KWAJALEIN AP   MOSUNNY   84  72  65 E18       29.88R
MAJURO AP      NOT AVBL
MAJURO WSO     MOSUNNY   84  75  74 NE13      29.85R HX  92

$$




USA.gov is the U.S. government's official web portal to all federal, state and local government web resources and services.